Hourly Data Report for October 27, 2013

All times are specified in Local Standard Time (LST). Add 1 hour to adjust for Daylight Saving Time where and when it is observed.

ST LEONARD CS
NEW BRUNSWICK

47°09'28.050" N
67°49'55.014" W
245.00 m
810I001
71019
WIY

Download Data

Hourly Data (October 2013)
Hourly Data Report for October 27, 2013
Temp Definition
°C
Dew Point Temp Definition
°C
Rel Hum Definition
%
Wind Dir Definition
10's deg

Wind Spd Definition
km/h
Visibility Definition
km
Stn Press Definition
kPa
Hmdx Definition


Wind Chill Definition


Weather Definition


TIME
00:00 1.7 1.4 98 16 13   97.94     LegendNANA
01:00 1.8 1.4 97 16 13   97.89     LegendNANA
02:00 1.9 1.5 97 16 9   97.86     LegendNANA
03:00 2.0 1.5 96 16 13   97.83     LegendNANA
04:00 2.2 1.6 96 17 15   97.77     LegendNANA
05:00 2.4 1.6 94 16 15   97.75     LegendNANA
06:00 2.6 1.8 94 17 11   97.75     LegendNANA
07:00 2.6 1.8 94 16 9   97.73     LegendNANA
08:00 2.8 1.9 94 16 4   97.76     LegendNANA
09:00 3.2 2.1 92 19 15   97.78     LegendNANA
10:00 3.6 2.6 93 18 9   97.77     LegendNANA
11:00 3.7 2.7 93 18 9   97.76     LegendNANA
12:00 4.0 3.1 94 18 9   97.73     LegendNANA
13:00 4.6 3.0 89 21 9   97.68     LegendNANA
14:00 5.6 3.3 85 22 17   97.65     LegendNANA
15:00 5.9 3.3 83 22 9   97.65     LegendNANA
16:00 5.8 3.2 83 21 9   97.69     LegendNANA
17:00 5.5 3.2 85 18 4   97.71     LegendNANA
18:00 4.8 2.8 87 22 6   97.75     LegendNANA
19:00 4.5 2.8 89 22 6   97.78     LegendNANA
20:00 4.1 2.7 91 23 7   97.82     LegendNANA
21:00 4.0 2.5 90 23 9   97.87     LegendNANA
22:00 4.0 1.4 83 30 17   97.93     LegendNANA
23:00 2.3 1.2 92 29 9   97.98     LegendNANA

Notes on Data Quality.

Legend

  • E = Estimated
  • M = Missing
  • NA = Not Available
  • ‡ = Partner data that is not subject to review by the National Climate Archives
Date modified: